Location: Hysolar-Haus
(48.7436°N, 9.0965°E)
Time: 03:43:37
(UTC+00:00)

ISS - Visible Passes

Search period start: 29 July 2021 00:00
Search period end: 08 August 2021 00:00
Orbit: 419 x 421 km, 51.6° (Epoch: 28 July)

Date Brightness Start Highest point End Pass type
(mag) Time Alt. Az. Time Alt. Az. Time Alt. Az.
29 Jul -1.8 21:13:16 10° W 21:15:32 17° SW 21:15:55 17° SSW visible
30 Jul -2.2 20:25:32 10° W 20:28:23 25° SW 20:30:17 15° S visible
31 Jul -2.7 19:38:01 10° WNW 19:41:10 37° SSW 19:44:18 10° SE visible
01 Aug -1.1 20:29:10 10° WSW 20:30:06 11° SW 20:31:02 10° SSW visible
02 Aug -1.4 19:40:43 10° W 19:42:58 17° SW 19:45:12 10° S visible
